HES150 LIPE-LGKF

Flight info

Callsign HES150
Flight time N/A
Altitude 23000
Route PELEG DCT ASTUS
Aircraft PC12/L-SDE3/C

Departure

Time 2026-05-04 09:37
Airport Bologna Guglielmo Marconi Airport (LIPE)

Arrival

Time N/A
Airport Kefallinia Airport (LGKF)
Time Latitude Longitude Altitude Speed Heading
2026-05-04 09:31 44.53543 11.27888 125 ft 0 kts 208°
2026-05-04 09:34 44.53884 11.27574 125 ft 0 kts 353°
2026-05-04 09:35 44.53889 11.27574 125 ft 5 kts
2026-05-04 09:35 44.53951 11.27652 124 ft 18 kts 74°
2026-05-04 09:37 44.53367 11.34386 1289 ft 183 kts 24°
2026-05-04 09:37 44.54621 11.34616 1694 ft 188 kts 358°
2026-05-04 09:38 44.55963 11.34783 2071 ft 199 kts 11°
2026-05-04 09:38 44.57271 11.35507 2470 ft 207 kts 28°
2026-05-04 09:38 44.58516 11.36591 2864 ft 212 kts 33°
2026-05-04 09:38 44.59794 11.37723 3265 ft 221 kts 32°
2026-05-04 09:39 44.61127 11.38859 3649 ft 225 kts 31°
2026-05-04 09:39 44.62459 11.39982 4028 ft 225 kts 31°
2026-05-04 09:39 44.63814 11.41139 4415 ft 230 kts 32°
2026-05-04 09:39 44.65213 11.42216 4787 ft 228 kts 19°
2026-05-04 09:40 44.66779 11.42287 5132 ft 228 kts 343°
2026-05-04 09:40 44.68090 11.41118 5484 ft 229 kts 309°
2026-05-04 09:40 44.68731 11.39107 5840 ft 226 kts 276°
2026-05-04 09:40 44.68522 11.36972 6207 ft 224 kts 245°
2026-05-04 09:41 44.67585 11.35237 6585 ft 222 kts 225°
2026-05-04 09:42 44.59780 11.24702 9175 ft 224 kts 217°
2026-05-04 09:43 44.58545 11.23360 9563 ft 225 kts 218°
2026-05-04 09:43 44.57318 11.22025 9946 ft 226 kts 217°
2026-05-04 09:43 44.56070 11.20680 10309 ft 227 kts 217°
2026-05-04 09:43 44.54812 11.19326 10675 ft 227 kts 217°
2026-05-04 09:44 44.53577 11.17993 11036 ft 227 kts 217°
2026-05-04 09:44 44.52320 11.16641 11403 ft 227 kts 217°
2026-05-04 09:44 44.51064 11.15288 11780 ft 227 kts 216°
2026-05-04 09:46 44.41889 11.10777 14334 ft 229 kts 150°
2026-05-04 09:46 44.40546 11.11990 14679 ft 228 kts 149°
2026-05-04 09:46 44.39197 11.13173 15047 ft 229 kts 149°
2026-05-04 09:47 44.37863 11.14355 15409 ft 230 kts 149°
2026-05-04 09:47 44.36513 11.15561 15777 ft 230 kts 149°
2026-05-04 09:49 44.28515 11.25665 18455 ft 236 kts 99°
2026-05-04 09:49 44.28429 11.27955 18800 ft 234 kts 97°
2026-05-04 09:49 44.28330 11.30219 19101 ft 234 kts 97°
2026-05-04 09:51 44.27756 11.44061 20839 ft 241 kts 97°
2026-05-04 09:51 44.27655 11.46378 21128 ft 242 kts 96°
2026-05-04 09:51 44.27533 11.48719 21427 ft 240 kts 102°
2026-05-04 09:51 44.27099 11.50968 21732 ft 238 kts 109°
2026-05-04 09:52 44.26668 11.53201 22036 ft 239 kts 108°
2026-05-04 09:52 44.26257 11.55441 22343 ft 239 kts 108°
2026-05-04 09:52 44.25831 11.57677 22657 ft 238 kts 108°
2026-05-04 09:52 44.25401 11.59907 22968 ft 238 kts 108°
2026-05-04 09:53 44.24968 11.62151 23158 ft 243 kts 108°
2026-05-04 09:53 44.24518 11.64486 23156 ft 254 kts 108°
2026-05-04 09:53 44.24050 11.66918 23167 ft 263 kts 107°
2026-05-04 09:53 44.23568 11.69433 23165 ft 271 kts 107°
2026-05-04 09:54 44.23070 11.71991 23157 ft 276 kts 109°
2026-05-04 09:54 44.22240 11.74368 23153 ft 276 kts 127°
2026-05-04 09:54 44.21031 11.76449 23148 ft 278 kts 133°
2026-05-04 09:54 44.19776 11.78522 23150 ft 281 kts 132°
2026-05-04 09:55 44.18522 11.80629 23145 ft 284 kts 132°
2026-05-04 09:55 44.17253 11.82754 23142 ft 286 kts 132°
2026-05-04 09:55 44.15977 11.84875 23143 ft 287 kts 132°
2026-05-04 09:55 44.14691 11.87014 23140 ft 288 kts 132°
2026-05-04 09:56 44.13404 11.89158 23137 ft 289 kts 132°
2026-05-04 09:56 44.12172 11.91207 23138 ft 290 kts 132°
2026-05-04 09:56 44.10871 11.93371 23140 ft 290 kts 132°
2026-05-04 09:56 44.09589 11.95496 23140 ft 291 kts 132°
2026-05-04 09:57 44.08284 11.97658 23139 ft 291 kts 132°
2026-05-04 09:57 44.06982 11.99817 23140 ft 291 kts 131°
2026-05-04 09:57 44.05678 12.01979 23138 ft 291 kts 132°
2026-05-04 09:57 44.04370 12.04144 23138 ft 292 kts 132°
2026-05-04 09:58 44.03078 12.06279 23136 ft 291 kts 131°
2026-05-04 09:58 44.01769 12.08442 23138 ft 292 kts 132°
2026-05-04 09:58 44.00461 12.10599 23138 ft 292 kts 132°
2026-05-04 10:00 43.91304 12.25681 23132 ft 292 kts 132°
2026-05-04 10:00 43.89987 12.27837 23139 ft 292 kts 132°
2026-05-04 10:02 43.80790 12.42891 23134 ft 293 kts 132°
2026-05-04 10:04 43.71545 12.57941 23131 ft 294 kts 132°
2026-05-04 10:04 43.70222 12.60089 23127 ft 294 kts 132°
2026-05-04 10:04 43.68890 12.62249 23131 ft 294 kts 132°
2026-05-04 10:04 43.67577 12.64375 23126 ft 294 kts 132°
2026-05-04 10:05 43.66252 12.66526 23129 ft 294 kts 131°
2026-05-04 10:05 43.64920 12.68683 23131 ft 295 kts 131°
2026-05-04 10:05 43.63578 12.70849 23132 ft 296 kts 132°
2026-05-04 10:05 43.62238 12.73011 23133 ft 296 kts 131°
2026-05-04 10:06 43.60919 12.75145 23131 ft 296 kts 131°
2026-05-04 10:06 43.59582 12.77305 23131 ft 296 kts 131°
2026-05-04 10:06 43.58242 12.79463 23131 ft 296 kts 131°
2026-05-04 10:08 43.50207 12.92381 23125 ft 296 kts 131°
2026-05-04 10:08 43.48865 12.94537 23125 ft 296 kts 131°
2026-05-04 10:08 43.47521 12.96689 23124 ft 296 kts 131°
2026-05-04 10:08 43.46174 12.98847 23126 ft 296 kts 131°
2026-05-04 10:09 43.44830 13.00996 23127 ft 296 kts 131°
2026-05-04 10:09 43.43488 13.03144 23127 ft 296 kts 131°
2026-05-04 10:09 43.42142 13.05298 23126 ft 297 kts 131°
2026-05-04 10:09 43.40793 13.07448 23128 ft 297 kts 131°
2026-05-04 10:10 43.39458 13.09576 23128 ft 297 kts 131°
2026-05-04 10:10 43.38107 13.11732 23126 ft 297 kts 131°
2026-05-04 10:10 43.36752 13.13894 23126 ft 298 kts 131°
2026-05-04 10:10 43.35396 13.16048 23127 ft 298 kts 131°
2026-05-04 10:11 43.34041 13.18206 23126 ft 298 kts 131°
2026-05-04 10:11 43.32681 13.20369 23128 ft 298 kts 131°
2026-05-04 10:11 43.31323 13.22524 23127 ft 298 kts 131°
2026-05-04 10:11 43.29981 13.24654 23124 ft 298 kts 131°
2026-05-04 10:12 43.28624 13.26806 23123 ft 298 kts 131°
2026-05-04 10:12 43.27272 13.28950 23121 ft 297 kts 131°
2026-05-04 10:12 43.25917 13.31096 23123 ft 297 kts 130°
2026-05-04 10:12 43.24562 13.33239 23122 ft 297 kts 130°
2026-05-04 10:13 43.23207 13.35383 23122 ft 297 kts 130°
2026-05-04 10:13 43.21862 13.37509 23121 ft 297 kts 130°
2026-05-04 10:13 43.20492 13.39672 23119 ft 297 kts 130°
2026-05-04 10:13 43.19150 13.41787 23121 ft 297 kts 130°
2026-05-04 10:14 43.17796 13.43924 23122 ft 297 kts 130°
2026-05-04 10:14 43.16435 13.46069 23118 ft 297 kts 130°
2026-05-04 10:16 43.06929 13.61005 23127 ft 299 kts 130°
2026-05-04 10:16 43.05568 13.63128 23133 ft 300 kts 130°
2026-05-04 10:16 43.04191 13.65282 23129 ft 301 kts 130°
2026-05-04 10:16 43.02812 13.67449 23131 ft 301 kts 130°
2026-05-04 10:17 43.01430 13.69608 23133 ft 301 kts 130°
2026-05-04 10:17 43.00049 13.71757 23132 ft 301 kts 130°
2026-05-04 10:19 42.90423 13.86749 23137 ft 300 kts 130°
2026-05-04 10:19 42.89039 13.88899 23138 ft 300 kts 130°
2026-05-04 10:19 42.87660 13.91034 23141 ft 300 kts 130°
2026-05-04 10:19 42.86298 13.93147 23141 ft 301 kts 130°
2026-05-04 10:20 42.84917 13.95293 23138 ft 300 kts 130°
2026-05-04 10:20 42.83536 13.97426 23136 ft 299 kts 130°
2026-05-04 10:20 42.82155 13.99562 23138 ft 299 kts 130°
2026-05-04 10:20 42.80797 14.01660 23134 ft 298 kts 130°
2026-05-04 10:21 42.79425 14.03779 23137 ft 298 kts 130°
2026-05-04 10:21 42.78052 14.05900 23137 ft 298 kts 130°
2026-05-04 10:21 42.76678 14.08018 23138 ft 298 kts 130°
2026-05-04 10:21 42.75306 14.10133 23138 ft 298 kts 130°
2026-05-04 10:22 42.72562 14.14357 23137 ft 298 kts 130°
2026-05-04 10:22 42.71190 14.16466 23139 ft 298 kts 130°
2026-05-04 10:22 42.69813 14.18583 23143 ft 298 kts 130°
2026-05-04 10:23 42.68455 14.20669 23142 ft 298 kts 130°
2026-05-04 10:23 42.67078 14.22782 23142 ft 298 kts 130°
2026-05-04 10:25 42.57441 14.37528 23149 ft 299 kts 130°
2026-05-04 10:25 42.56058 14.39636 23148 ft 299 kts 130°
2026-05-04 10:25 42.54675 14.41745 23147 ft 299 kts 130°
2026-05-04 10:25 42.53300 14.43839 23150 ft 299 kts 130°
2026-05-04 10:26 42.51914 14.45949 23149 ft 299 kts 130°
2026-05-04 10:26 42.50525 14.48062 23152 ft 299 kts 130°
2026-05-04 10:26 42.49139 14.50169 23150 ft 299 kts 130°
2026-05-04 10:26 42.47753 14.52276 23148 ft 299 kts 130°
2026-05-04 10:27 42.46382 14.54355 23149 ft 299 kts 130°
2026-05-04 10:27 42.44994 14.56463 23150 ft 299 kts 130°
2026-05-04 10:27 42.43604 14.58568 23149 ft 299 kts 130°
2026-05-04 10:27 42.42212 14.60677 23152 ft 300 kts 130°
2026-05-04 10:28 42.40824 14.62778 23149 ft 300 kts 130°
2026-05-04 10:28 42.39429 14.64888 23146 ft 300 kts 130°
2026-05-04 10:28 42.38037 14.66991 23148 ft 300 kts 130°
2026-05-04 10:28 42.36661 14.69070 23147 ft 300 kts 130°
2026-05-04 10:29 42.35266 14.71176 23148 ft 300 kts 130°
2026-05-04 10:29 42.33872 14.73277 23149 ft 300 kts 130°
2026-05-04 10:29 42.32479 14.75378 23151 ft 300 kts 130°
2026-05-04 10:29 42.31083 14.77480 23147 ft 300 kts 130°
2026-05-04 10:30 42.30155 14.78877 23149 ft 300 kts 130°
2026-05-04 10:30 42.28756 14.80980 23150 ft 301 kts 130°
2026-05-04 10:30 42.26901 14.83769 23148 ft 301 kts 130°
2026-05-04 10:30 42.25503 14.85869 23152 ft 301 kts 130°
2026-05-04 10:31 42.24100 14.87974 23150 ft 301 kts 130°
2026-05-04 10:31 42.23153 14.89394 23149 ft 301 kts 130°
2026-05-04 10:32 42.14739 15.01983 23146 ft 302 kts 129°
2026-05-04 10:33 42.13326 15.04091 23146 ft 302 kts 129°
2026-05-04 10:33 42.11914 15.06196 23146 ft 302 kts 129°
2026-05-04 10:33 42.10499 15.08304 23148 ft 302 kts 129°
2026-05-04 10:33 42.09100 15.10389 23150 ft 303 kts 129°
2026-05-04 10:34 42.07669 15.12518 23146 ft 303 kts 129°
2026-05-04 10:34 42.06273 15.14595 23148 ft 303 kts 129°
2026-05-04 10:34 42.04855 15.16701 23149 ft 303 kts 129°
2026-05-04 10:34 42.03440 15.18802 23151 ft 303 kts 129°
2026-05-04 10:35 42.02024 15.20904 23146 ft 303 kts 129°
2026-05-04 10:35 42.00606 15.23006 23146 ft 303 kts 129°
2026-05-04 10:35 41.99177 15.25123 23152 ft 304 kts 129°
2026-05-04 10:35 41.97776 15.27198 23148 ft 304 kts 129°
2026-05-04 10:36 41.96356 15.29299 23149 ft 304 kts 129°
2026-05-04 10:36 41.94934 15.31401 23153 ft 304 kts 129°
2026-05-04 10:36 41.93509 15.33507 23153 ft 304 kts 129°
2026-05-04 10:36 41.92084 15.35611 23155 ft 304 kts 129°
2026-05-04 10:37 41.90657 15.37716 23160 ft 305 kts 129°
2026-05-04 10:37 41.89226 15.39828 23163 ft 305 kts 129°
2026-05-04 10:37 41.87793 15.41937 23167 ft 306 kts 129°
2026-05-04 10:37 41.86373 15.44029 23173 ft 306 kts 129°
2026-05-04 10:39 41.77756 15.56683 23185 ft 307 kts 129°
2026-05-04 10:39 41.76309 15.58802 23186 ft 307 kts 129°
2026-05-04 10:39 41.74859 15.60923 23185 ft 308 kts 129°
2026-05-04 10:40 41.73414 15.63036 23158 ft 308 kts 129°
2026-05-04 10:40 41.71970 15.65152 23156 ft 308 kts 129°
2026-05-04 10:40 41.70518 15.67270 23158 ft 308 kts 129°
2026-05-04 10:40 41.69085 15.69362 23159 ft 308 kts 129°
2026-05-04 10:41 41.67637 15.71472 23161 ft 308 kts 129°
2026-05-04 10:41 41.66187 15.73588 23164 ft 308 kts 129°
2026-05-04 10:41 41.64736 15.75700 23167 ft 308 kts 129°
2026-05-04 10:41 41.63286 15.77807 23167 ft 308 kts 129°
2026-05-04 10:42 41.61833 15.79924 23167 ft 308 kts 129°
2026-05-04 10:42 41.60401 15.82004 23160 ft 308 kts 129°
2026-05-04 10:42 41.58947 15.84117 23164 ft 308 kts 129°
2026-05-04 10:42 41.57497 15.86219 23165 ft 308 kts 129°
2026-05-04 10:43 41.56047 15.88324 23163 ft 308 kts 129°
2026-05-04 10:44 41.45848 16.03071 23165 ft 309 kts 129°
2026-05-04 10:45 41.44386 16.05179 23159 ft 309 kts 128°
2026-05-04 10:45 41.42925 16.07286 23165 ft 310 kts 128°
2026-05-04 10:45 41.41457 16.09398 23155 ft 310 kts 128°
2026-05-04 10:45 41.39993 16.11507 23159 ft 310 kts 128°
2026-05-04 10:46 41.38547 16.13584 23159 ft 310 kts 128°
2026-05-04 10:46 41.37076 16.15698 23156 ft 310 kts 128°
2026-05-04 10:46 41.35607 16.17807 23161 ft 311 kts 128°
2026-05-04 10:46 41.34134 16.19920 23154 ft 311 kts 128°
2026-05-04 10:47 41.32659 16.22036 23158 ft 311 kts 128°
2026-05-04 10:47 41.31182 16.24151 23162 ft 311 kts 128°
2026-05-04 10:47 41.29707 16.26265 23156 ft 311 kts 128°
2026-05-04 10:47 41.28251 16.28347 23162 ft 311 kts 128°
2026-05-04 10:49 41.17957 16.43034 23166 ft 313 kts 128°
2026-05-04 10:49 41.16463 16.45158 23160 ft 313 kts 128°
2026-05-04 10:50 41.14973 16.47274 23161 ft 313 kts 128°
2026-05-04 10:51 41.04547 16.62056 23161 ft 314 kts 128°
2026-05-04 10:52 41.03047 16.64177 23162 ft 314 kts 128°
2026-05-04 10:52 41.01551 16.66288 23167 ft 314 kts 128°
2026-05-04 10:52 41.00056 16.68398 23161 ft 314 kts 128°